Location: Barrio de Buenos Aires
(28.4500°N, 16.2667°W)
Time: 14:04:02
(UTC+00:00)

Atlas Centaur 2 - Pass Details

Date: 24 January 2020
Orbit: 459 x 1310 km, 30.4° (Epoch: 25 February)

Event Time Altitude Azimuth Distance (km) Brightness Sun altitude
Rises 20:43:31 0° 275° (W) 2,897 6.2 -27.5°
Reaches altitude 10° 20:45:38 10° 278° (W) 2,096 5.2 -28.0°
Enters shadow 20:49:52 64° 312° (NW) 858 2.2 -28.9°
